Pomona, MO

12:43 PM CDT on August 28, 2016 (GMT -0500)
West Plains Municipal

Weather History for KUNO - September, 2013

Change the Weather History Date:

Thursday, September 26, 2013

  Actual Average Record
Temperature  
Mean Temperature 68 °F 64 °F  
Max Temperature 81 °F 77 °F 90 °F (1954)
Min Temperature 55 °F 52 °F 37 °F (1985)
Degree Days  
Heating Degree Days 0 3  
Month to date heating degree days 16 24  
Since 1 July heating degree days 20 25  
Cooling Degree Days 3 2  
Month to date cooling degree days 183 148  
Year to date cooling degree days 1025 1320  
Growing Degree Days 18 (Base 50)    
Moisture  
Dew Point 60 °F    
Average Humidity 76    
Maximum Humidity 100    
Minimum Humidity 51    
Precipitation  
Precipitation 0.00 in 0.14 in 3.51 in (1996)
Month to date precipitation 1.41 3.51  
Year to date precipitation 43.64 33.58  
Sea Level Pressure  
Sea Level Pressure 29.97 in    
Wind  
Wind Speed 3 mph (SE)    
Max Wind Speed 10 mph    
Max Gust Speed 15 mph    
Visibility 7 miles    
Events Fog    
T = Trace of Precipitation, MM = Missing Value Source: NWS Daily Summary

Daily Weather History Graph

Daily Weather History Graph

Search for Another Location

Airport or City:

Trip Planner

Search our weather history database for the weather conditions in past years. The results will help you decide how hot, cold, wet, or windy it might be!

Date:

Astronomy

Sep. 26, 2013 Rise Set
Actual Time 6:58 AM CDT 6:58 PM CDT
Civil Twilight 6:33 AM CDT 7:23 PM CDT
Nautical Twilight 6:02 AM CDT 7:53 PM CDT
Astronomical Twilight 5:32 AM CDT 8:24 PM CDT
Moon No Moon Rise 1:44 PM CDT (9/26)
Length of Visible Light 12h 50m
Length of Day
11h 59m
Waning Gibbous, 54% of the Moon is Illuminated
Sep 26
Waning Gibbous
Sep 26
Last Quarter
Oct 4
New
Oct 11
First Quarter
Oct 18
Full

Hourly Weather History & Observations

Time (CDT) Temp. Heat Index Dew Point Humidity Pressure Visibility Wind Dir Wind Speed Gust Speed Precip Events Conditions
12:53 AM 59.0 °F - 57.0 °F 93% 29.88 in 10.0 mi Calm Calm - 0.01 in   Clear
1:53 AM 57.9 °F - 55.9 °F 93% 29.88 in 7.0 mi Calm Calm - N/A   Clear
2:53 AM 57.0 °F - 55.0 °F 93% 29.89 in 9.0 mi Calm Calm - N/A   Clear
3:53 AM 57.0 °F - 55.0 °F 93% 29.90 in 7.0 mi Calm Calm - N/A   Clear
4:53 AM 57.0 °F - 55.0 °F 93% 29.91 in 8.0 mi Calm Calm - N/A   Clear
5:22 AM 55.4 °F - 55.4 °F 100% 29.94 in 9.0 mi Calm Calm - N/A   Scattered Clouds
5:42 AM 55.4 °F - 53.6 °F 94% 29.95 in 10.0 mi Calm Calm - N/A   Mostly Cloudy
5:53 AM 57.0 °F - 55.9 °F 96% 29.92 in 1.8 mi Calm Calm - N/A   Mostly Cloudy
6:10 AM 57.2 °F - 55.4 °F 94% 29.96 in 3.0 mi Calm Calm - N/A   Overcast
6:28 AM 55.4 °F - 53.6 °F 94% 29.96 in 1.8 mi Calm Calm - N/A   Overcast
6:32 AM 55.4 °F - 53.6 °F 94% 29.97 in 0.8 mi Calm Calm - N/A   Mist
6:45 AM 55.4 °F - 55.4 °F 100% 29.97 in 1.2 mi Calm Calm - N/A   Overcast
6:53 AM 55.9 °F - 55.0 °F 97% 29.95 in 2.5 mi Calm Calm - N/A   Overcast
7:00 AM 55.4 °F - 55.4 °F 100% 29.98 in 5.0 mi Calm Calm - N/A   Overcast
7:11 AM 55.4 °F - 53.6 °F 94% 29.98 in 0.8 mi Calm Calm - N/A   Mist
7:21 AM 55.4 °F - 55.4 °F 100% 29.98 in 0.2 mi Calm Calm - N/A Fog Fog
7:28 AM 57.2 °F - 55.4 °F 94% 29.99 in 0.2 mi Calm Calm - N/A Fog Fog
7:37 AM 57.2 °F - 57.2 °F 100% 29.99 in 0.5 mi Calm Calm - N/A Fog Fog
7:53 AM 59.0 °F - 57.9 °F 96% 29.97 in 0.2 mi Calm Calm - N/A Fog Fog
8:53 AM 64.0 °F - 64.0 °F 100% 29.99 in 0.2 mi Calm Calm - N/A Fog Fog
9:20 AM 66.2 °F - 64.4 °F 94% 30.02 in 1.2 mi Calm Calm - N/A   Mostly Cloudy
9:24 AM 66.2 °F - 64.4 °F 94% 30.02 in 3.0 mi Calm Calm - N/A   Mostly Cloudy
9:35 AM 69.8 °F - 66.2 °F 88% 30.02 in 8.0 mi ESE 3.5 mph - N/A   Scattered Clouds
9:53 AM 71.1 °F - 66.9 °F 87% 29.99 in 10.0 mi ESE 3.5 mph - N/A   Partly Cloudy
10:11 AM 71.6 °F - 66.2 °F 83% 30.02 in 10.0 mi ESE 3.5 mph - N/A   Mostly Cloudy
10:49 AM 73.4 °F - 64.4 °F 73% 30.02 in 10.0 mi SSE 4.6 mph - N/A   Partly Cloudy
10:53 AM 73.0 °F - 64.9 °F 76% 30.00 in 10.0 mi Variable 3.5 mph - N/A   Scattered Clouds
11:29 AM 75.2 °F - 64.4 °F 69% 30.02 in 10.0 mi SE 5.8 mph - N/A   Mostly Cloudy
11:53 AM 75.9 °F - 64.0 °F 67% 30.00 in 10.0 mi SE 6.9 mph - N/A   Mostly Cloudy
12:03 PM 75.2 °F - 62.6 °F 65% 30.02 in 10.0 mi SE 6.9 mph - N/A   Mostly Cloudy
12:53 PM 77.0 °F - 64.0 °F 64% 29.99 in 10.0 mi Variable 6.9 mph - N/A   Overcast
1:53 PM 80.1 °F 81.5 °F 63.0 °F 56% 29.96 in 10.0 mi East 6.9 mph - N/A   Mostly Cloudy
2:53 PM 81.0 °F 81.9 °F 62.1 °F 52% 29.95 in 10.0 mi South 6.9 mph - N/A   Scattered Clouds
3:53 PM 80.1 °F 81.1 °F 61.0 °F 52% 29.95 in 10.0 mi South 4.6 mph - N/A   Clear
4:53 PM 81.0 °F 81.6 °F 60.1 °F 49% 29.95 in 10.0 mi SSE 9.2 mph - N/A   Clear
5:53 PM 79.0 °F - 61.0 °F 54% 29.95 in 10.0 mi SE 5.8 mph - N/A   Clear
6:53 PM 75.0 °F - 63.0 °F 66% 29.96 in 10.0 mi ESE 3.5 mph - N/A   Clear
7:53 PM 72.0 °F - 63.0 °F 73% 29.96 in 10.0 mi ESE 5.8 mph - N/A   Clear
8:53 PM 70.0 °F - 63.0 °F 78% 29.98 in 10.0 mi ESE 5.8 mph - N/A   Clear
9:53 PM 69.1 °F - 63.0 °F 81% 29.99 in 10.0 mi SE 4.6 mph - N/A   Clear
10:53 PM 68.0 °F - 62.1 °F 81% 29.99 in 10.0 mi SE 3.5 mph - N/A   Clear
11:53 PM 64.9 °F - 61.0 °F 87% 29.99 in 10.0 mi Calm Calm - N/A   Clear